This is the latest recevied weather packets stored in our database for station/object KD7AWQ. If no packets are shown the sender has not sent any weather packets the latest 10 day(s).
| Time | Temp. | Humidity | Pressure | Rain* | Wind** | Luminosity | Snow |
|---|---|---|---|---|---|---|---|
| 1777135035 | 20.56° C | 15% | 1181.5 hPa | 0 mm | - | 551 W/m² | - |
| 1777134732 | 20.56° C | 15% | 1181.1 hPa | 0 mm | - | 642 W/m² | - |
| 1777134428 | 20° C | 16% | 1181.6 hPa | 0 mm | - | 642 W/m² | - |
| 1777134124 | 20° C | 15% | 1181.6 hPa | 0 mm | - | 592 W/m² | - |
| 1777133821 | 19.44° C | 16% | 1181.3 hPa | 0 mm | - | 472 W/m² | - |
| 1777133516 | 19.44° C | 15% | 1181.4 hPa | 0 mm | - | 591 W/m² | - |
| 1777133216 | 19.44° C | 16% | 1181.3 hPa | 0 mm | - | 577 W/m² | - |
| 1777132911 | 18.89° C | 16% | 1181.1 hPa | 0 mm | - | 592 W/m² | - |
| 1777132607 | 19.44° C | 16% | 1181.4 hPa | 0 mm | - | 428 W/m² | - |
| 1777132304 | 19.44° C | 17% | 1181.3 hPa | 0 mm | - | 518 W/m² | - |
| 1777132000 | 18.89° C | 16% | 1181.4 hPa | 0 mm | - | 650 W/m² | - |
| 1777131699 | 18.89° C | 17% | 1181.3 hPa | 0 mm | - | 373 W/m² | - |
| 1777131398 | 19.44° C | 17% | 1181.4 hPa | 0 mm | - | 426 W/m² | - |
| 1777131097 | 18.89° C | 17% | 1181.5 hPa | 0 mm | - | 432 W/m² | - |
| 1777130794 | 18.89° C | 17% | 1181.4 hPa | 0 mm | - | 419 W/m² | - |
| 1777130489 | 18.89° C | 17% | 1181.4 hPa | 0 mm | - | 552 W/m² | - |
| 1777130186 | 18.33° C | 17% | 1181.2 hPa | 0 mm | - | 358 W/m² | - |
| 1777129882 | 18.33° C | 17% | 1181.3 hPa | 0 mm | - | 321 W/m² | - |
| 1777129577 | 18.89° C | 17% | 1181.3 hPa | 0 mm | - | 365 W/m² | - |
| 1777129276 | 18.89° C | 16% | 1181.5 hPa | 0 mm | - | 314 W/m² | - |
| 1777128972 | 18.89° C | 17% | 1181.3 hPa | 0 mm | - | 415 W/m² | - |
| 1777128669 | 18.89° C | 17% | 1181.8 hPa | 0 mm | - | 351 W/m² | - |
* Rain latest hour (hover to see other rain measurements)
** Current wind speed in m/s (hover to see current wind gust speed)